Clarion
Saturday 10:15 PM
Temperature34° (46°/21°)
Dew Point30°
Feels Like28°
Relative Humidity86
%
Visibility10
mi
Pressure1020.7
mb
Wind DirectionE
80°
Wind Speed7
mph
Precipitation Today0.00"

Last 30 Observations

Time PresWx Temp DP Feels RH% Vsby Pressure Ceiling Direction Speed 1h Precip
9:55 PM 34° 30° 27°86
%
10
mi
1021.0
mb
E
90°
8
mph
0.00"
9:35 PM 34° 32° 29°93
%
10
mi
1021.0
mb
E
80°
6
mph
0.00"
9:15 PM 36° 30° 31°81
%
10
mi
1021.0
mb
E
80°
6
mph
0.00"
8:55 PM 34° 32° 29°93
%
10
mi
1021.0
mb
E
80°
5
mph
0.00"
8:35 PM 36° 32° 31°87
%
10
mi
1020.7
mb
ENE
70°
6
mph
0.00"
8:15 PM 37° 34° 34°87
%
10
mi
1020.7
mb
ENE
70°
5
mph
0.00"
7:55 PM 39° 34° 35°81
%
10
mi
1020.7
mb
ENE
70°
6
mph
0.00"
7:35 PM 41° 32° 36°70
%
10
mi
1020.7
mb
ENE
60°
7
mph
0.00"
7:15 PM 45° 30° 41°57
%
10
mi
1020.7
mb
ENE
70°
6
mph
0.00"
6:55 PM 45° 28° 41°53
%
10
mi
1020.7
mb
E
80°
7
mph
0.00"
6:35 PM 45° 28° 41°53
%
10
mi
1020.7
mb
E
80°
6
mph
0.00"
6:15 PM 46° 28° 43°49
%
10
mi
1020.7
mb
Variable 6
mph
0.00"
5:55 PM 45° 28° 42°53
%
10
mi
1020.7
mb
NE
40°
5
mph
0.00"
5:35 PM 46° 25° 43°42
%
10
mi
1020.7
mb
Variable 6
mph
0.00"
5:15 PM 46° 28° 42°49
%
10
mi
1020.7
mb
ENE
70°
8
mph
0.00"
4:55 PM 45° 25° 41°45
%
10
mi
1021.0
mb
NE
40°
6
mph
0.00"
4:35 PM 46° 27° 43°46
%
10
mi
1021.0
mb
ENE
60°
7
mph
0.00"
4:15 PM 45° 27° 41°49
%
10
mi
1021.3
mb
E
100°
7
mph
0.00"
3:55 PM 45° 28° 41°53
%
10
mi
1021.3
mb
NE
50°
7
mph
0.00"
3:35 PM 43° 28° 39°57
%
10
mi
1021.7
mb
ENE
60°
7
mph
0.00"
3:15 PM 43° 28° 38°57
%
10
mi
1022.0
mb
E
90°
8
mph
0.00"
2:55 PM 43° 28° 37°57
%
10
mi
1022.4
mb
E
90°
9
mph
0.00"
2:35 PM 41° 28° 36°61
%
10
mi
1022.7
mb
NE
50°
7
mph
0.00"
2:15 PM 39° 28° 33°65
%
10
mi
1023.0
mb
NE
50°
9
mph
0.00"
1:55 PM 39° 27° 33°60
%
10
mi
1023.4
mb
NE
40°
9
mph
0.00"
1:35 PM 37° 27° 33°65
%
10
mi
1023.7
mb
NE
40°
6
mph
0.00"
1:15 PM 37° 28° 31°70
%
10
mi
1023.7
mb
NE
50°
9
mph
0.00"
12:55 PM 36° 28° 29°75
%
10
mi
1023.7
mb
NNE
30°
8
mph
0.00"
12:35 PM 34° 27° 26°75
%
10
mi
1024.1
mb
NNE
30°
9
mph
0.00"
12:15 PM 32° 23° 24°69
%
10
mi
1024.4
mb
NNE
30°
10
mph
0.00"